IABS R/B

基本信息
目录编号:
22738
目录名称:
IABS R/B
国际标识:
1993-046C
轨道中心:
EARTH
物体状态:
在轨
发射日期:
1993-07-19 UTC
国别:
美国 (US)
轨道信息
数据来源: 国际轨道数据
星历时间: 2026-07-13T11:07:38+0800
半长轴: 41650.091km
偏心率: 0.00848
轨道倾角: 12.440°
近地点辐角: 143.636°
升交点赤经: 336.687°
平近点角: 216.994°
近地点: 34918.761km
远地点: 35625.147km
周期: 1409.885分钟
每日圈数: 1.02136
详细信息
发射场:
AFETR
轨道高度:
MEO
数据来源:
AOE Integration Group
参考系:
TEME
时间系统:
UTC
历元类型:
SGP4
2D轨道图
3D轨道图
轨道高度分析图
轨道倾角分析图
轨道综合分析图
查看轨道综合分析图